Elizabeth City, NC

2:03 AM EDT on June 22, 2018 (GMT -0400)
Elizabeth City Cgas-Regional

Weather History for KECG - June, 2018

Change the Weather History Date:

Thursday, June 14, 2018

  Actual Average Record
Temperature  
Mean Temperature 80 °F 75 °F  
Max Temperature 89 °F 85 °F 98 °F (1944)
Min Temperature 70 °F 66 °F 49 °F (1980)
Degree Days  
Heating Degree Days 0 0  
Month to date heating degree days 0 0  
Since 1 June heating degree days 0 0  
Since 1 July heating degree days 3103 3229  
Cooling Degree Days 15 10  
Month to date cooling degree days 154 122  
Year to date cooling degree days 498 286  
Since 1 June cooling degree days 154 122  
Growing Degree Days 30 (Base 50)    
Moisture  
Dew Point 72 °F    
Average Humidity 78    
Maximum Humidity 100    
Minimum Humidity 55    
Precipitation  
Precipitation 0.00 in 0.15 in 2.28 in (2006)
Month to date precipitation 1.78 2.13  
Year to date precipitation 23.87 19.30  
Snow  
Snow 0.00 in - 0.00 in (2002)
Month to date snowfall 0.0  
Since 1 July snowfall 6.8  
Snow Depth 0.00 in    
Sea Level Pressure  
Sea Level Pressure 29.92 in    
Wind  
Wind Speed 8 mph (West)    
Max Wind Speed 17 mph    
Max Gust Speed 19 mph    
Visibility 10 miles    
Events Thunderstorm    
T = Trace of Precipitation, MM = Missing Value Source: NWS Daily Summary

Daily Weather History Graph

Daily Weather History Graph

Search for Another Location

Airport or City:

Astronomy

Jun. 14, 2018 Rise Set
Actual Time 5:46 AM EDT 8:23 PM EDT
Civil Twilight 5:16 AM EDT 8:53 PM EDT
Nautical Twilight 4:38 AM EDT 9:31 PM EDT
Astronomical Twilight 3:56 AM EDT 10:13 PM EDT
Moon 6:40 AM EDT (6/14) 9:23 PM EDT (6/14)
Length of Visible Light 15h 37m
Length of Day
14h 36m
New Moon, 1% of the Moon is Illuminated
Jun 14
New Moon
Jun 20
First Quarter
Jun 28
Full
Jul 6
Last Quarter
Jul 12
New

Hourly Weather History & Observations

Time (EDT) Temp. Heat Index Dew Point Humidity Pressure Visibility Wind Dir Wind Speed Gust Speed Precip Events Conditions
12:54 AM 73.9 °F - 72.0 °F 93% 29.94 in 10.0 mi SW 8.1 mph - N/A   Clear
1:54 AM 75.0 °F - 72.0 °F 90% 29.93 in 10.0 mi SW 6.9 mph - N/A   Clear
2:54 AM 75.0 °F - 73.0 °F 94% 29.92 in 10.0 mi SW 10.4 mph - N/A   Clear
3:54 AM 75.0 °F - 72.0 °F 90% 29.91 in 10.0 mi SW 9.2 mph - N/A   Clear
4:54 AM 73.9 °F - 72.0 °F 93% 29.91 in 10.0 mi SW 10.4 mph - N/A   Clear
5:54 AM 73.9 °F - 72.0 °F 93% 29.92 in 10.0 mi SW 9.2 mph - N/A   Clear
6:54 AM 75.0 °F - 73.0 °F 94% 29.92 in 10.0 mi SW 11.5 mph - N/A   Clear
7:54 AM 77.0 °F - 73.9 °F 90% 29.92 in 10.0 mi SW 11.5 mph - N/A   Clear
8:54 AM 82.0 °F 89.4 °F 75.9 °F 82% 29.92 in 10.0 mi SW 8.1 mph - N/A   Clear
9:54 AM 81.0 °F 86.2 °F 73.9 °F 79% 29.94 in 10.0 mi West 10.4 mph - N/A   Clear
10:54 AM 82.9 °F 90.2 °F 75.0 °F 77% 29.94 in 10.0 mi West 10.4 mph - N/A   Clear
11:49 AM 84.2 °F 92.3 °F 75.2 °F 74% 29.93 in 10.0 mi North 8.1 mph - N/A   Mostly Cloudy
11:54 AM 84.9 °F 93.3 °F 75.0 °F 72% 29.93 in 10.0 mi NNW 6.9 mph - N/A   Mostly Cloudy
12:16 PM 86.0 °F 95.1 °F 75.0 °F 70% 29.93 in 10.0 mi NW 5.8 mph - N/A   Mostly Cloudy
12:54 PM 88.0 °F 97.5 °F 75.0 °F 65% 29.92 in 10.0 mi North 6.9 mph - N/A   Mostly Cloudy
1:54 PM 87.1 °F 95.4 °F 73.9 °F 65% 29.91 in 10.0 mi North 9.2 mph - N/A   Scattered Clouds
2:54 PM 84.9 °F 91.4 °F 73.0 °F 67% 29.91 in 10.0 mi NE 11.5 mph - N/A Thunderstorm Mostly Cloudy
3:12 PM 84.9 °F 90.7 °F 72.0 °F 65% 29.90 in 10.0 mi ENE 10.4 mph - N/A   Overcast
3:54 PM 86.0 °F 92.2 °F 72.0 °F 63% 29.90 in 10.0 mi ENE 9.2 mph - N/A   Scattered Clouds
4:54 PM 84.9 °F 89.4 °F 70.0 °F 61% 29.91 in 10.0 mi NE 12.7 mph - N/A   Clear
5:54 PM 84.0 °F 86.5 °F 66.9 °F 56% 29.92 in 10.0 mi East 6.9 mph - N/A   Clear
6:54 PM 82.9 °F 85.4 °F 66.9 °F 58% 29.91 in 10.0 mi East 6.9 mph - N/A   Clear
7:54 PM 80.1 °F 83.2 °F 70.0 °F 71% 29.91 in 10.0 mi East 5.8 mph - N/A   Clear
8:54 PM 75.9 °F - 70.0 °F 82% 29.93 in 10.0 mi Calm Calm - N/A   Clear
9:54 PM 75.0 °F - 72.0 °F 90% 29.94 in 10.0 mi Calm Calm - N/A   Clear
10:54 PM 73.0 °F - 71.1 °F 93% 29.95 in 10.0 mi Calm Calm - N/A   Clear
11:54 PM 72.0 °F - 71.1 °F 97% 29.96 in 10.0 mi SSW 3.5 mph - N/A   Clear